Weather History for Mullan Pass, ID

Change the Weather History Date:

Saturday, November 24, 2012

  Actual Average (K3TH) Record (K3TH)
Temperature  
Mean Temperature 26 °F -  
Max Temperature 30 °F 37 °F 46 °F (1997)
Min Temperature 21 °F 29 °F 26 °F (1996)
Degree Days  
Heating Degree Days 38    
Moisture  
Dew Point 27 °F    
Average Humidity 97    
Maximum Humidity 100    
Minimum Humidity 91    
Precipitation  
Precipitation 0.67 in - - ()
Sea Level Pressure  
Sea Level Pressure 30.02 in    
Wind  
Wind Speed 7 mph (WSW)    
Max Wind Speed 12 mph    
Max Gust Speed 28 mph    
Visibility 4 miles    
Events Fog , Snow    
Averages and records for this station are not official NWS values.
T = Trace of Precipitation, MM = Missing Value Source: NWS Daily Summary

Daily Weather History Graph

Daily Weather History Graph

Search for Another Location

Airport:

Trip Planner

Search our weather history database for the weather conditions in past years. The results will help you decide how hot, cold, wet, or windy it might be!

Date:

Astronomy

Nov. 24, 2012 Rise Set
Actual Time 7:01 AM PST 3:57 PM PST
Civil Twilight 6:26 AM PST 4:32 PM PST
Nautical Twilight 5:48 AM PST 5:10 PM PST
Astronomical Twilight 5:11 AM PST 5:46 PM PST
Moon 1:55 PM PST (11/24) 3:10 AM PST (11/24)
Length of Visible Light 10h 05m
Length of Day
8h 56m
Waxing Gibbous, 88% of the Moon is Illuminated
Nov 24
Waxing Gibbous
Nov 28
Full
Dec 6
Last Quarter
Dec 13
New
Dec 19
First Quarter

Hourly Weather History & Observations

Time (PST) Temp. Windchill Dew Point Humidity Pressure Visibility Wind Dir Wind Speed Gust Speed Precip Events Conditions
12:00 AM 28.4 °F 20.4 °F 28.4 °F 100% 30.01 in 0.2 mi SW 8.1 mph 20.7 mph 0.01 in Fog , Snow Snow
12:10 AM 28.4 °F 23.3 °F 28.4 °F 100% 30.01 in 0.5 mi Variable 4.6 mph 20.7 mph 0.03 in Fog , Snow Snow
12:19 AM 28.4 °F 23.3 °F 28.4 °F 100% 30.01 in 0.2 mi Variable 4.6 mph - 0.04 in Fog , Snow Snow
12:53 AM 28.0 °F 22.8 °F 28.0 °F 100% 29.94 in 0.2 mi Variable 4.6 mph - 0.10 in Fog , Snow Heavy Snow
1:53 AM 28.0 °F 20.8 °F 28.0 °F 100% 29.95 in 0.2 mi SSW 6.9 mph - 0.13 in Fog , Snow Snow
2:08 AM 28.4 °F 21.2 °F 28.4 °F 100% 30.01 in 0.5 mi Variable 6.9 mph - 0.02 in Fog , Snow Snow
2:29 AM 28.4 °F 20.4 °F 28.4 °F 100% 30.01 in 0.2 mi SW 8.1 mph - 0.06 in Fog , Snow Heavy Snow
2:53 AM 28.9 °F 22.8 °F 28.9 °F 100% 29.95 in 0.5 mi SW 5.8 mph - 0.10 in Fog , Snow Snow
3:26 AM 28.4 °F 20.4 °F 28.4 °F 100% 30.00 in 0.2 mi SSW 8.1 mph 16.1 mph 0.05 in Fog , Snow Heavy Snow
3:53 AM 28.9 °F 22.8 °F 28.9 °F 100% 29.94 in 0.5 mi Variable 5.8 mph 16.1 mph 0.10 in Fog , Snow Snow
4:18 AM 28.4 °F 18.5 °F 28.4 °F 100% 29.99 in 0.2 mi SW 11.5 mph 18.4 mph 0.04 in Fog , Snow Snow
4:28 AM 28.4 °F 19.7 °F 28.4 °F 100% 30.00 in 0.5 mi SW 9.2 mph 19.6 mph 0.05 in Fog , Snow Snow
4:53 AM 28.9 °F 21.1 °F 28.9 °F 100% 30.08 in 0.8 mi SW 8.1 mph 19.6 mph 0.05 in Snow Light Snow
5:12 AM 28.4 °F 20.4 °F 28.4 °F 100% 29.99 in 0.2 mi SW 8.1 mph 21.9 mph 0.00 in Fog , Snow Light Snow
5:53 AM 28.9 °F 21.1 °F 28.9 °F 100% 29.93 in 0.2 mi SW 8.1 mph 27.6 mph 0.01 in Fog , Snow Light Snow
6:13 AM 28.4 °F 19.7 °F 28.4 °F 100% 30.00 in 0.5 mi WSW 9.2 mph 20.7 mph 0.02 in Fog , Snow Light Snow
6:27 AM 28.4 °F 19.7 °F 28.4 °F 100% 30.00 in 0.2 mi West 9.2 mph 20.7 mph 0.02 in Fog , Snow Light Snow
6:35 AM 30.2 °F 21.9 °F 30.2 °F 100% 30.00 in 0.2 mi West 9.2 mph 20.7 mph 0.02 in Fog Light Freezing Fog
6:53 AM 30.0 °F 22.4 °F 30.0 °F 100% 29.94 in 0.2 mi West 8.1 mph 27.6 mph 0.03 in Fog , Snow Light Snow
7:24 AM 30.2 °F 25.4 °F 30.2 °F 100% 30.00 in 0.2 mi WSW 4.6 mph - 0.02 in Fog , Snow Snow
7:53 AM 30.0 °F 22.4 °F 30.0 °F 100% 29.95 in 0.2 mi WNW 8.1 mph - 0.05 in Fog , Snow Snow
8:08 AM 30.2 °F 21.3 °F 28.4 °F 93% 30.01 in 1.0 mi WNW 10.4 mph 20.7 mph 0.01 in Snow Light Snow
8:22 AM 30.2 °F 24.3 °F 28.4 °F 93% 30.01 in 0.8 mi Variable 5.8 mph - 0.01 in Snow Light Snow
8:29 AM 30.2 °F 23.4 °F 30.2 °F 100% 30.01 in 1.0 mi Variable 6.9 mph - 0.01 in Snow Light Snow
8:34 AM 30.2 °F 23.4 °F 30.2 °F 100% 30.01 in 0.2 mi Variable 6.9 mph - 0.02 in Fog , Snow Snow
8:53 AM 30.0 °F 24.1 °F 30.0 °F 100% 29.96 in 0.2 mi Variable 5.8 mph - 0.04 in Fog , Snow Snow
9:53 AM 30.0 °F 23.2 °F 28.9 °F 96% 29.97 in 0.2 mi Variable 6.9 mph - 0.05 in Fog , Snow Light Snow
10:05 AM 30.2 °F 25.4 °F 30.2 °F 100% 30.03 in 0.8 mi Variable 4.6 mph - 0.00 in Snow Light Snow
10:12 AM 30.2 °F 23.4 °F 28.4 °F 93% 30.03 in 2.0 mi Variable 6.9 mph 25.3 mph 0.00 in Snow Light Snow
10:32 AM 28.4 °F 20.4 °F 28.4 °F 100% 30.03 in 4.0 mi West 8.1 mph - 0.00 in Snow Light Snow
10:42 AM 28.4 °F 21.2 °F 28.4 °F 100% 30.03 in 2.5 mi Variable 6.9 mph - 0.00 in Snow Light Snow
10:45 AM 28.4 °F 19.1 °F 28.4 °F 100% 30.03 in 0.8 mi WNW 10.4 mph 17.3 mph 0.00 in Snow Light Snow
10:53 AM 28.9 °F 21.1 °F 28.0 °F 96% 30.11 in 0.5 mi West 8.1 mph 23.0 mph 0.01 in Fog , Snow Light Snow
10:57 AM 28.4 °F 18.5 °F 28.4 °F 100% 30.03 in 1.0 mi WNW 11.5 mph 23.0 mph 0.00 in Snow Light Snow
11:01 AM 28.4 °F 18.5 °F 26.6 °F 93% 30.02 in 2.0 mi WNW 11.5 mph 23.0 mph 0.00 in Snow Light Snow
11:06 AM 28.4 °F 19.1 °F 26.6 °F 93% 30.03 in 5.0 mi West 10.4 mph 23.0 mph 0.00 in Snow Light Snow
11:20 AM 28.4 °F 21.2 °F 26.6 °F 93% 30.03 in 9.0 mi Variable 6.9 mph 25.3 mph 0.00 in   Mostly Cloudy
11:53 AM 27.0 °F 20.5 °F 26.1 °F 96% 30.11 in 10.0 mi Variable 5.8 mph - 0.00 in   Scattered Clouds
12:02 PM 28.4 °F 23.3 °F 26.6 °F 93% 30.03 in 10.0 mi Variable 4.6 mph - N/A   Mostly Cloudy
12:14 PM 28.4 °F 22.2 °F 26.6 °F 93% 30.03 in 10.0 mi Variable 5.8 mph - N/A   Mostly Cloudy
12:21 PM 28.4 °F 23.3 °F 26.6 °F 93% 30.02 in 10.0 mi Variable 4.6 mph - N/A   Mostly Cloudy
12:31 PM 26.6 °F 19.1 °F 26.6 °F 100% 30.03 in 10.0 mi West 6.9 mph - N/A   Scattered Clouds
12:53 PM 28.0 °F 19.3 °F 26.1 °F 92% 30.12 in 10.0 mi WNW 9.2 mph - N/A   Partly Cloudy
1:30 PM 26.6 °F 21.2 °F 26.6 °F 100% 30.02 in 10.0 mi Variable 4.6 mph - N/A   Mostly Cloudy
1:53 PM 27.0 °F 21.6 °F 26.1 °F 96% 30.12 in 10.0 mi Variable 4.6 mph - N/A   Mostly Cloudy
2:19 PM 26.6 °F 22.6 °F 26.6 °F 100% 30.01 in 10.0 mi Variable 3.5 mph - N/A   Overcast
2:29 PM 26.6 °F 22.6 °F 26.6 °F 100% 30.02 in 10.0 mi Variable 3.5 mph - N/A   Mostly Cloudy
2:53 PM 27.0 °F - 26.1 °F 96% 30.12 in 10.0 mi Calm Calm - N/A   Overcast
3:00 PM 26.6 °F - 26.6 °F 100% 30.02 in 10.0 mi Calm Calm - N/A   Overcast
3:53 PM 27.0 °F 19.5 °F 25.0 °F 92% 30.11 in 10.0 mi WSW 6.9 mph - N/A   Mostly Cloudy
4:53 PM 26.1 °F 19.4 °F 25.0 °F 96% 30.11 in 10.0 mi Variable 5.8 mph - N/A   Mostly Cloudy
5:53 PM 26.1 °F 17.6 °F 25.0 °F 96% 30.10 in 10.0 mi SW 8.1 mph - N/A   Mostly Cloudy
6:53 PM 25.0 °F 19.3 °F 23.0 °F 92% 30.09 in 10.0 mi WSW 4.6 mph - N/A   Partly Cloudy
7:53 PM 24.1 °F 18.2 °F 23.0 °F 96% 30.09 in 10.0 mi SW 4.6 mph - N/A   Mostly Cloudy
8:29 PM 24.8 °F 19.1 °F 23.0 °F 93% 29.98 in 10.0 mi SW 4.6 mph - N/A   Scattered Clouds
8:53 PM 24.1 °F 17.0 °F 21.9 °F 91% 30.07 in 10.0 mi Variable 5.8 mph - N/A   Clear
9:53 PM 23.0 °F 14.7 °F 21.0 °F 92% 30.07 in 10.0 mi SW 6.9 mph - N/A   Clear
10:53 PM 23.0 °F 17.0 °F 21.0 °F 92% 30.07 in 10.0 mi West 4.6 mph - N/A   Clear
11:53 PM 21.9 °F - 19.9 °F 92% 30.07 in 10.0 mi Calm Calm - N/A   Clear